Regional Weather Roundup
Issued by NWS Huntsville, AL

Home | Current Version | Previous Version | Text Only | Print | Product List | Glossary On
Versions: 1 2 3 4 5 6 7 8 9 10 11 12 13 14 15 16 17 18 19 20 21 22 23 24 25 26 27 28 29 30 31 32 33 34 35 36 37 38 39 40 41 42 43 44 45 46 47 48 49 50
000
ASUS44 KHUN 010310
RWRHUN

WEATHER ROUNDUP FOR THE TENNESSEE VALLEY
NATIONAL WEATHER SERVICE HUNTSVILLE AL
1000 PM CDT FRI JUL 31 2015

ALZ001>004-010400-
NORTHWEST ALABAMA

CITY           SKY/WX    TMP DP  RH WIND       PRES   REMARKS
COURTLAND HCN    N/A     77 N/A N/A CALM        N/A
RUSSELLVILLE     N/A     70 N/A N/A MISG        N/A
SHOALS AIRPORT CLEAR     78  64  61 N5        30.03R
SHOALS TVA RES   N/A     79 N/A N/A MISG        N/A
$$

ALZ005>007-016-010400-
NORTH CENTRAL ALABAMA

CITY           SKY/WX    TMP DP  RH WIND       PRES   REMARKS
CULLMAN AG STN   N/A     72 N/A N/A CALM        N/A
DECATUR AP     PTCLDY    71  63  75 N6        30.02R
HUNTSVILLE AP  PTCLDY    75  62  64 N3        30.01S
HUN NWS/UAH      N/A     78  57  47 N6          N/A
MERIDIANVILLE  CLEAR     68  61  77 CALM      30.03R
REDSTONE ARSN  PTCLDY    74  61  63 N6        30.01R
VINEMONT AP    FAIR      67  61  81 CALM      30.05R
$$

ALZ008>010-010400-
NORTHEAST ALABAMA

CITY           SKY/WX    TMP DP  RH WIND       PRES   REMARKS
ALBERTVILLE    CLEAR     73  64  73 N7        30.01S
FORT PAYNE     CLEAR     70  59  68 CALM      30.01R
SCOTTSBORO AP  CLEAR     70  63  78 CALM      30.02R
SCOTTSBORO HCN   N/A     68 N/A N/A MISG        N/A
VALLEY HEAD      N/A     66 N/A N/A MISG        N/A
$$

TNZ076-096-097-010400-
SOUTHEASTERN MIDDLE TENNESSEE

CITY           SKY/WX    TMP DP  RH WIND       PRES   REMARKS
TULLAHOMA      CLEAR     66  61  82 CALM      30.06S
WINCHESTER     CLEAR     64  61  88 CALM      30.05R
$$

...SURROUNDING SITES...

CITY           SKY/WX    TMP DP  RH WIND       PRES   REMARKS
ATLANTA        MOCLDY    81  62  52 NW9       29.98R
ANNISTON       CLEAR     76  59  55 E3        29.98R
BIRMINGHAM     CLEAR     78  58  49 N7        30.00R
CHATTANOOGA    PTCLDY    76  61  59 N7        30.01R
DALTON         CLEAR     72  63  73 N3        30.00R
GADSDEN        CLEAR     77  55  47 N6        29.98S
GOLDEN TRNGL   CLEAR     79  63  57 N6        29.98R
HALEYVILLE     FAIR      74  63  68 N7        30.05S
JACKSON TN     FAIR      73  67  81 CALM      30.05R
MEMPHIS        CLEAR     84  63  49 NE6       30.06R
NASHVILLE      PTCLDY    79  61  53 N3        30.05R
ROME           CLEAR     73  62  68 N3        29.98R
SAVANNAH       CLEAR     72  32  23 CALM      30.05R
TUPELO         CLEAR     78  64  61 N8        30.01R
TUSCALOOSA     CLEAR     74  65  73 CALM      29.97R
$$

...GULF COAST WEATHER...

CITY           SKY/WX    TMP DP  RH WIND       PRES   REMARKS
GULFPORT       CLEAR     84  66  54 N6        29.90R
PASCAGOULA     PTCLDY    78  76  93 CALM      29.91R
MOBILE         PTCLDY    81  66  60 NE6       29.93R
GULF SHORES    CLOUDY    76  73  92 CALM      29.91R
PENSACOLA      MOCLDY    77  74  90 CALM      29.90R
DESTIN         MOCLDY    82  76  81 NE3       29.90R
PANAMA CITY    PTCLDY    80  78  93 SE3       29.91R
APPALACHICOLA  PTCLDY    81  77  88 CALM      29.91R
$$




USA.gov is the U.S. government's official web portal to all federal, state and local government web resources and services.